Theta_e
310 310 310 312 320 324 324 325 324 322 320 321 321 320 321 322 322 322 322 323 326 325 324 323 323 325 321 332 346 347 347 349 350 358 357 351 350 351 349 349 348 346 342 337 334 331 330 330 332 336 339 341 341 340 339 339 338 337 337 335 335 334 335 333 328 324 320 316 314 315 314 314 313 313 312 312 311 312 311 310 310 310 309 309 309 309 309 310 310 310 310 312 315 322 326 327 327
310 310 311 316 322 323 325 325 322 321 320 320 320 320 321 322 322 320 320 321 323 324 323 322 322 322 323 338 345 345 349 350 349 353 352 349 350 350 349 349 348 346 341 336 333 331 330 331 334 337 339 341 341 341 340 339 338 338 338 337 336 335 335 334 333 331 328 321 316 315 315 314 313 313 312 312 311 311 312 311 310 310 309 309 309 309 309 309 310 310 310 311 314 320 325 325 325
311 312 315 320 323 324 325 324 323 320 318 319 319 321 322 321 320 319 320 320 322 322 322 321 321 321 329 342 344 347 349 350 350 350 349 350 349 349 349 349 349 346 340 336 332 331 330 331 335 337 339 341 342 341 341 340 339 338 338 338 337 336 335 334 334 334 334 329 321 316 315 315 314 314 313 312 311 311 312 311 310 310 310 309 309 309 309 309 310 310 310 311 312 317 323 324 325
312 316 322 325 324 323 324 324 326 322 318 317 316 320 322 320 319 320 320 320 322 321 322 320 326 335 341 346 345 347 347 349 351 351 351 350 349 349 349 348 349 345 339 336 332 331 330 331 334 337 339 341 342 342 341 340 339 339 339 339 338 337 337 336 335 334 334 334 328 321 317 316 315 315 313 311 311 311 312 312 311 311 311 310 310 310 309 309 309 310 309 310 311 315 320 323 325
312 320 325 327 325 321 322 325 325 321 319 318 315 319 320 320 320 320 320 321 321 320 322 319 330 345 347 347 347 346 346 348 350 351 351 349 349 349 348 348 348 344 339 335 332 330 330 331 334 337 339 340 342 342 341 341 340 340 339 339 338 338 337 337 336 335 334 334 333 328 323 318 316 315 314 312 311 311 312 312 311 311 312 311 311 310 310 310 310 310 309 310 311 314 316 319 325
315 322 324 325 325 321 323 325 323 320 320 320 317 318 319 321 321 321 321 321 321 321 322 320 332 346 348 347 348 347 346 348 349 351 351 349 349 349 348 348 347 343 338 335 332 330 329 331 333 335 339 340 342 342 341 341 340 340 340 339 338 338 337 337 337 336 334 333 333 331 327 322 318 316 315 313 311 311 312 313 312 312 313 312 311 311 311 311 310 309 309 309 311 313 314 320 326
318 321 321 323 323 321 325 325 323 321 320 321 319 319 320 321 321 321 322 321 322 322 321 324 336 347 348 347 348 348 347 349 350 350 350 349 349 349 348 348 346 340 336 334 331 329 329 330 333 334 337 340 341 342 342 341 341 340 340 339 338 338 337 337 337 336 334 332 332 331 329 326 321 316 316 315 312 311 311 313 314 313 314 314 313 313 312 311 311 309 309 309 310 311 315 322 327
320 319 320 321 320 320 324 323 321 321 321 321 319 320 320 322 322 322 323 322 323 322 322 324 337 348 348 347 349 350 349 349 349 349 349 349 348 348 346 346 344 338 334 332 329 329 329 330 332 333 336 339 340 341 341 341 341 340 340 339 338 338 337 337 336 335 334 332 331 330 330 328 324 319 318 319 315 312 313 314 315 316 316 315 313 314 313 312 311 310 309 309 309 311 317 323 327
319 319 319 320 320 319 319 319 319 319 319 319 320 321 320 322 323 323 324 323 324 323 324 322 335 350 349 347 349 350 350 349 349 350 349 349 348 346 345 344 343 339 336 332 328 328 328 329 330 331 334 336 339 339 340 340 340 340 340 339 338 337 337 337 334 333 332 331 331 331 332 330 327 322 322 323 318 315 315 315 316 317 318 317 315 314 314 313 312 311 309 309 310 314 320 326 329
320 319 320 321 322 319 317 316 317 318 319 318 320 321 320 322 322 323 323 324 324 323 328 328 338 348 349 348 349 350 350 349 349 350 348 348 347 345 344 343 343 342 340 336 327 326 329 330 328 328 330 332 334 335 337 338 339 339 339 338 338 338 338 336 332 331 332 332 334 334 334 332 329 324 322 322 319 316 316 317 318 319 319 319 317 315 315 314 313 312 310 309 311 317 323 329 331
321 319 319 320 321 320 318 317 316 319 319 319 320 320 321 321 321 323 322 323 323 324 329 337 346 348 348 348 349 349 350 350 350 350 348 348 346 344 344 343 343 342 343 337 326 326 331 330 327 325 326 328 329 330 332 334 337 338 338 338 338 338 338 334 331 331 333 334 336 336 335 332 328 323 321 320 318 317 318 318 320 320 321 320 318 316 315 314 313 313 311 310 312 319 325 329 331
320 318 319 320 320 319 318 317 317 320 319 319 320 320 321 320 321 322 322 324 323 325 326 337 347 348 349 349 349 349 350 350 350 349 348 348 346 344 344 344 344 343 343 337 326 327 331 329 327 324 324 325 325 325 327 330 333 335 336 337 337 338 336 331 330 332 335 337 338 337 335 332 327 324 321 320 318 319 319 320 321 322 322 321 320 318 316 315 314 313 313 310 311 318 324 327 330
319 319 318 319 319 317 317 316 317 320 319 319 320 320 321 320 322 322 322 323 322 330 335 341 344 347 350 349 349 350 350 350 349 349 348 348 346 345 344 344 344 343 343 335 326 328 330 328 327 326 324 323 323 322 324 327 331 334 335 335 336 336 332 329 331 333 336 338 338 337 336 334 330 327 324 320 319 320 322 321 322 323 323 322 321 319 318 316 315 315 314 313 311 315 322 327 330
318 319 319 320 320 318 317 316 316 318 319 320 320 320 321 320 322 321 322 323 325 337 343 345 341 347 351 349 350 350 350 350 349 348 348 348 347 346 344 344 344 344 342 333 326 330 329 328 329 329 327 325 324 322 324 327 330 333 334 334 333 331 329 330 332 334 337 338 337 335 335 333 331 330 326 322 319 321 324 323 323 324 322 323 323 321 320 318 317 316 316 315 313 313 319 327 330
317 319 319 320 320 318 318 318 317 316 319 321 319 320 321 320 322 321 323 323 327 337 342 342 339 348 352 349 350 350 349 349 349 348 348 348 347 347 345 345 344 345 344 333 327 330 329 329 330 331 330 328 327 324 325 327 328 329 330 330 329 328 328 331 332 334 337 337 335 333 333 332 331 331 328 325 321 321 325 324 324 325 323 322 324 323 322 320 319 319 318 318 317 315 316 322 328
317 317 318 319 317 317 317 318 317 316 319 320 319 321 320 320 322 321 323 323 323 333 341 342 341 348 350 349 350 350 349 349 349 348 348 348 347 347 346 346 344 345 344 333 327 329 329 329 330 330 330 329 328 325 325 325 325 325 327 327 327 328 330 331 333 335 336 335 333 333 332 333 332 332 330 328 324 320 323 324 325 326 323 322 325 325 324 323 321 321 321 321 322 321 317 319 325
317 316 317 318 317 316 317 318 318 317 319 319 320 320 319 320 321 320 322 321 322 334 342 343 343 346 347 347 349 350 349 349 349 349 348 348 348 347 346 345 345 345 342 332 328 329 328 329 330 330 330 329 327 326 325 325 324 323 324 326 327 330 332 332 334 335 335 333 333 332 332 333 333 332 330 329 326 321 320 324 326 326 323 322 324 326 326 325 324 324 323 324 325 326 323 319 323
317 318 318 317 317 317 317 318 318 319 319 320 320 319 320 319 320 320 321 320 323 338 343 343 345 345 345 347 347 349 349 349 349 348 348 348 348 347 346 345 345 344 339 330 328 329 327 328 330 329 329 328 327 326 326 326 325 323 323 325 327 331 332 333 333 334 333 332 331 330 330 331 333 332 330 329 328 324 321 325 327 324 323 323 324 326 326 326 326 326 324 325 325 326 326 323 324
317 319 319 316 316 317 317 318 318 318 318 319 319 319 320 318 319 319 320 320 321 338 345 346 349 349 348 349 348 349 349 349 349 349 349 348 348 348 346 345 344 342 337 329 328 329 327 328 329 328 328 328 327 326 326 327 327 324 324 324 326 328 330 332 333 333 332 330 328 328 328 330 332 331 329 329 330 328 324 325 327 324 322 322 323 325 326 326 326 326 325 325 324 324 326 326 326
317 317 318 316 316 317 317 318 318 318 318 318 318 318 319 318 319 318 320 318 319 336 344 347 350 351 350 350 349 349 349 349 349 349 348 348 348 347 347 345 343 342 337 331 329 331 329 328 328 328 328 329 327 327 327 329 328 324 324 324 325 326 328 330 332 331 329 328 327 326 328 330 332 331 331 331 330 330 328 327 327 323 319 319 320 323 326 325 325 326 325 325 324 324 326 327 327
317 316 317 316 317 317 317 319 319 318 318 318 318 318 318 318 319 319 320 317 324 340 343 343 348 350 350 349 349 349 348 348 348 349 348 348 347 347 347 346 344 343 340 336 335 335 333 330 328 327 329 330 329 329 330 329 328 325 324 325 326 325 325 326 327 326 326 326 326 325 327 329 331 331 331 333 332 331 331 331 330 326 323 321 318 320 325 324 324 324 324 324 324 325 328 329 329
317 316 316 316 316 316 317 319 319 318 318 317 318 317 317 318 318 319 319 318 328 341 342 340 343 346 347 348 349 348 348 348 348 348 348 347 347 346 347 346 344 343 342 340 340 339 338 334 329 327 329 331 331 331 331 330 329 327 325 326 325 322 323 323 322 322 323 325 325 325 327 328 330 331 331 333 334 333 333 333 333 331 327 323 320 319 321 322 322 322 322 322 323 325 329 331 333
316 316 316 316 317 317 317 318 318 318 318 317 317 317 317 317 318 319 317 322 332 338 339 340 338 338 341 347 348 347 348 348 348 349 348 348 347 347 347 346 344 343 342 342 341 340 340 337 330 328 329 332 333 333 331 331 331 328 326 326 324 322 324 324 323 324 324 323 325 328 329 328 330 331 331 333 334 333 334 334 333 330 323 320 321 319 318 319 319 320 321 321 323 327 330 332 333
316 316 316 317 317 317 318 318 318 318 317 317 317 317 316 317 318 318 320 330 337 338 339 339 339 340 340 345 347 347 348 348 348 348 348 348 347 347 347 346 345 343 342 342 341 340 340 339 334 330 331 332 334 334 332 332 332 330 328 328 326 324 326 327 327 329 328 326 328 330 330 329 330 331 332 333 333 333 332 331 330 325 320 321 322 319 318 318 319 320 320 320 324 328 332 332 332
316 316 316 317 317 317 317 318 318 318 318 318 317 316 316 317 318 317 322 334 339 339 339 338 340 343 342 344 345 346 347 347 348 348 348 348 347 346 346 346 345 343 342 341 340 340 340 339 336 334 334 335 335 335 333 333 333 332 331 330 328 326 327 330 331 332 331 330 329 329 330 330 331 331 332 333 333 333 330 330 331 327 325 328 327 323 323 324 324 325 324 324 327 329 332 332 332
316 316 316 316 316 317 317 318 318 318 318 317 317 316 317 317 318 316 318 332 339 339 338 337 340 344 345 343 343 345 346 347 348 348 348 348 347 346 344 344 344 342 342 341 340 339 339 339 337 337 337 337 336 335 334 333 334 334 332 331 330 329 329 332 333 332 332 331 330 329 331 331 331 331 332 332 332 331 330 332 333 331 330 332 332 330 329 330 330 329 329 330 330 331 332 331 331
317 317 317 316 317 317 317 318 318 318 318 317 317 316 318 316 318 316 317 332 339 339 338 338 340 343 345 344 344 346 347 348 348 348 349 348 347 345 344 344 343 343 342 342 340 340 340 339 338 338 338 338 337 336 335 334 335 335 333 332 331 331 331 333 332 330 330 331 330 330 332 332 332 331 331 332 330 330 332 333 333 332 332 333 334 333 330 330 330 330 331 331 331 331 331 331 330
317 317 317 316 317 317 318 318 317 318 317 318 318 317 318 316 317 315 318 333 337 338 341 341 342 344 345 345 344 346 347 347 347 347 346 346 345 343 343 343 343 343 343 342 341 340 340 339 338 338 338 338 338 337 336 335 335 335 334 333 332 332 333 332 331 328 329 331 331 331 332 332 331 331 331 331 330 331 333 333 333 333 333 332 333 332 330 330 331 331 331 332 333 332 330 330 330
316 316 316 316 317 317 317 317 317 318 317 318 318 316 317 315 317 315 319 333 336 338 343 344 344 345 346 345 344 346 348 347 345 341 339 341 340 339 341 342 343 344 343 342 342 341 339 338 338 338 338 339 338 337 336 336 335 335 335 334 333 333 332 331 329 328 328 331 331 331 332 331 331 331 332 331 330 333 333 332 333 333 332 331 331 330 329 329 331 331 331 332 333 331 330 330 331
316 316 315 315 316 315 316 317 317 317 316 318 317 315 318 316 316 316 318 331 337 339 342 342 342 343 345 345 346 347 347 346 345 341 339 341 338 336 340 342 343 344 343 343 342 341 340 338 338 338 338 339 338 337 336 336 335 336 336 334 334 333 332 331 330 329 329 331 331 331 331 331 330 331 332 331 331 333 332 330 331 332 331 330 330 330 329 330 331 331 331 333 333 330 330 331 331
316 315 315 316 315 314 316 316 316 316 316 318 316 314 318 317 316 317 316 327 337 339 338 338 340 340 342 344 347 347 347 345 344 342 340 341 339 337 339 341 342 343 343 343 341 341 339 338 339 338 338 338 338 337 336 336 336 336 335 334 334 332 332 332 331 330 330 330 330 331 331 331 331 331 331 331 332 332 329 329 330 330 330 330 330 330 331 331 331 332 332 333 332 331 332 332 331
316 315 316 316 314 314 315 316 316 316 316 317 316 315 316 317 316 318 316 319 333 338 336 338 338 338 340 343 345 345 346 345 342 338 336 339 339 337 339 341 341 342 343 342 340 339 338 338 338 338 337 338 338 337 336 336 336 336 335 333 333 332 332 332 332 331 330 330 330 330 331 331 331 330 331 331 331 330 328 329 330 330 329 330 331 330 331 332 331 332 333 332 332 331 332 331 331
316 315 316 316 314 314 314 316 316 316 316 316 316 316 316 317 315 317 317 316 329 337 337 338 337 338 340 342 343 342 343 341 336 334 333 336 338 337 339 341 341 341 342 342 340 339 338 337 338 338 337 338 338 337 337 337 336 336 334 333 333 332 332 332 332 331 330 329 330 331 331 332 331 330 331 330 329 329 329 329 328 329 328 329 331 331 331 332 330 331 333 332 332 332 332 332 331
317 315 316 316 314 314 314 315 316 316 317 316 316 316 316 317 316 316 316 320 331 337 335 336 336 337 338 339 339 339 338 335 331 330 329 332 335 334 335 339 340 341 342 342 340 339 338 338 338 338 338 338 338 337 336 336 336 335 335 334 333 332 332 332 332 332 331 329 330 331 332 332 331 331 330 327 326 328 329 328 326 328 327 327 331 332 331 332 331 331 333 332 332 332 332 331 331
318 316 316 315 314 315 314 315 316 317 317 317 317 316 317 317 317 316 316 324 333 335 334 335 335 335 335 335 335 334 333 331 330 330 331 333 335 332 332 338 340 341 342 342 340 340 339 338 338 338 338 338 338 337 336 336 335 336 335 334 333 332 332 332 332 332 331 331 331 330 331 331 331 329 329 327 326 327 328 328 327 328 327 329 332 331 330 331 332 331 332 331 330 332 331 331 331
316 317 316 315 315 316 316 316 317 317 317 318 318 317 317 317 317 317 318 326 333 334 334 333 334 334 334 334 334 334 333 331 330 331 336 339 339 337 338 341 342 342 343 342 340 339 339 339 338 338 338 338 337 337 336 336 336 336 335 334 333 333 333 332 333 332 332 332 331 330 329 330 330 329 328 329 328 325 326 327 328 327 328 331 332 330 329 331 333 331 329 329 329 330 331 331 331
315 316 315 316 315 316 318 317 317 318 317 318 319 319 318 318 320 319 317 322 329 333 333 332 333 334 335 336 336 338 336 332 330 332 339 342 341 341 341 342 343 342 343 342 340 339 339 339 338 338 338 338 337 337 336 335 335 335 335 334 333 333 333 332 332 332 331 331 331 329 329 330 330 329 327 328 327 325 325 327 327 327 330 332 331 329 329 330 331 330 327 328 329 330 331 332 331
318 316 316 317 316 316 318 318 317 319 321 319 319 319 319 320 320 319 318 317 323 330 333 333 334 335 337 338 338 338 337 333 333 335 339 341 341 342 342 343 343 341 343 342 339 339 337 336 338 338 338 337 337 336 334 332 333 334 334 333 332 332 332 332 331 330 330 330 330 330 330 330 329 328 327 327 327 326 325 326 327 329 331 331 330 329 330 330 330 329 328 329 329 330 331 332 332
320 317 317 319 318 317 319 319 317 319 323 320 319 319 320 324 322 320 320 317 319 329 334 333 334 335 337 338 338 337 335 333 334 335 337 338 338 340 342 342 342 341 341 339 339 339 337 335 337 338 336 336 336 334 331 330 330 332 333 332 332 332 332 331 330 330 330 330 330 330 330 329 327 327 326 327 328 327 326 327 329 331 331 330 330 330 331 331 329 328 328 329 329 330 331 331 331
321 318 317 319 319 317 318 321 317 317 322 322 321 321 323 326 323 321 319 316 317 325 332 333 333 335 335 337 335 334 333 332 332 333 335 336 336 338 342 341 340 340 338 338 338 337 336 335 335 335 334 335 334 331 329 329 329 331 333 333 332 332 332 331 330 330 331 331 329 328 329 329 328 327 326 327 328 327 327 328 330 331 331 330 329 329 329 329 328 327 328 329 328 329 330 331 331
324 322 319 319 319 317 317 319 319 321 325 325 323 322 327 326 321 321 319 317 318 318 327 332 332 333 333 334 333 332 332 330 330 332 333 334 335 339 341 339 339 338 336 335 333 332 334 334 333 332 332 332 332 329 327 330 331 332 333 333 332 332 332 331 331 330 330 330 328 327 327 327 327 327 326 326 328 328 328 330 330 331 331 329 328 329 329 328 326 327 329 329 329 329 330 330 331
326 326 322 320 320 319 317 317 319 323 323 325 321 319 327 329 320 320 319 318 319 316 321 328 330 332 331 333 333 331 330 327 328 328 329 333 336 339 340 339 338 336 333 331 329 329 330 330 331 330 329 328 328 328 327 330 333 333 333 333 332 332 331 331 330 329 328 328 328 328 326 325 327 328 328 329 330 330 329 330 330 330 330 329 328 329 329 327 326 327 329 330 330 331 330 329 329
322 324 322 321 321 319 318 316 316 318 319 322 320 317 324 327 321 321 320 318 319 318 318 321 325 328 330 332 332 330 330 328 327 325 329 335 337 339 339 338 337 335 332 330 329 328 327 329 330 330 329 329 329 330 329 331 333 333 332 332 332 331 330 330 330 327 327 327 328 328 327 326 328 330 330 330 330 329 329 330 330 330 330 329 329 330 330 329 328 328 328 330 331 331 330 329 328
320 322 320 319 319 318 318 316 315 317 319 321 320 317 318 318 321 324 320 318 318 319 319 319 321 325 328 331 331 330 328 327 325 326 332 336 337 338 339 338 337 336 332 329 328 327 327 330 331 331 332 331 331 332 331 332 333 332 332 332 332 330 329 330 329 327 327 328 328 327 327 328 330 330 329 329 329 329 329 330 329 330 330 329 329 329 330 330 330 329 329 330 330 330 330 330 329
320 320 318 317 318 317 317 316 316 317 318 318 319 317 314 316 324 326 319 318 322 325 327 326 327 328 328 330 331 330 329 331 332 333 336 339 338 339 339 338 337 335 332 328 326 326 327 328 328 330 331 329 331 333 332 331 330 331 332 332 331 330 330 330 329 327 328 327 326 326 328 330 330 329 330 331 331 330 329 329 329 330 330 329 329 329 329 330 331 331 330 329 329 329 329 330 329
319 318 318 317 315 316 318 317 317 317 318 319 319 316 314 318 326 325 322 325 326 329 331 330 331 332 331 329 331 333 333 334 337 337 337 339 339 339 338 337 336 335 332 329 327 326 327 326 326 330 328 325 328 329 330 329 328 330 331 331 331 330 331 330 328 328 327 325 325 327 329 329 329 329 331 332 330 328 328 329 330 330 331 330 330 331 330 330 330 330 330 330 329 329 329 329 329
317 316 316 316 317 320 322 322 319 317 320 321 319 318 315 315 321 323 326 329 329 331 332 333 332 332 333 332 331 332 333 334 335 334 335 338 339 339 338 337 336 336 333 331 330 329 328 327 327 329 328 324 324 324 326 327 325 327 330 331 330 329 330 329 328 328 326 325 327 329 329 329 330 330 331 331 329 328 328 329 330 330 331 330 330 331 330 330 329 329 330 329 329 329 329 329 329
316 316 316 317 320 322 321 322 320 316 321 322 315 316 314 314 322 328 330 331 331 333 333 333 332 331 332 331 330 331 331 331 331 331 334 337 339 339 339 338 337 337 335 333 332 329 329 329 326 326 326 324 323 323 324 323 322 324 329 331 328 328 329 328 327 326 325 327 329 329 329 330 331 330 330 330 330 328 327 328 328 329 330 329 329 330 330 330 328 327 328 328 327 328 328 328 329
316 317 318 317 318 319 318 319 319 318 322 321 315 315 315 319 328 330 330 332 332 333 333 332 331 330 330 330 330 330 330 331 331 331 334 336 337 338 337 338 337 337 335 333 331 330 330 329 323 319 323 323 323 326 329 330 329 328 330 331 328 328 329 326 326 325 324 327 329 329 330 330 330 330 330 330 330 329 326 325 325 326 329 328 327 329 329 329 328 326 327 327 326 327 327 327 328
318 317 318 318 316 317 318 318 318 318 319 318 317 317 317 325 333 330 329 331 331 332 332 332 331 329 329 330 330 331 331 332 332 333 334 334 334 334 333 334 334 335 335 334 333 333 332 332 329 323 322 324 324 327 330 332 333 332 331 330 329 330 328 326 327 325 325 328 328 329 330 330 330 329 329 329 329 328 325 324 323 323 326 325 325 328 329 329 329 327 326 325 326 327 326 326 326
318 316 317 320 317 315 317 318 318 320 322 322 320 318 320 330 337 331 327 329 329 331 332 330 330 328 328 328 328 330 331 332 332 332 333 333 333 333 333 332 332 332 333 333 333 333 333 333 332 329 326 326 326 328 330 332 334 333 332 331 330 330 328 327 327 325 325 327 328 329 330 330 329 328 327 327 326 325 325 325 323 321 324 324 323 326 328 329 329 327 327 326 326 327 326 326 326
318 316 315 318 320 317 317 319 319 320 326 327 322 322 326 332 335 329 326 328 328 330 331 330 329 328 327 327 327 327 329 330 331 331 332 333 333 332 332 331 330 330 330 330 330 332 333 332 331 329 328 328 329 330 330 331 334 333 332 332 330 328 328 328 327 326 327 327 327 329 329 329 328 327 326 325 324 324 324 324 325 323 323 323 323 324 326 328 328 328 328 327 326 327 327 326 326
318 317 315 318 321 318 316 319 321 318 322 324 322 326 329 329 330 328 327 329 327 328 331 330 330 329 327 327 327 327 327 328 328 330 330 330 331 331 331 330 328 328 329 329 329 330 331 331 331 329 327 328 330 331 330 331 333 333 333 332 330 328 328 329 327 327 328 327 326 327 327 327 327 326 326 325 324 324 324 324 326 324 322 321 322 322 324 326 326 326 327 327 326 326 326 326 325
316 315 317 318 317 316 316 318 320 317 320 321 319 328 331 329 330 329 327 329 328 328 331 330 329 329 328 328 327 327 328 327 327 328 328 329 330 330 330 331 330 329 329 330 330 331 331 331 331 330 329 330 329 329 330 332 333 333 332 332 330 328 329 329 327 328 328 327 327 328 326 326 327 326 325 326 323 322 324 324 324 323 319 318 319 320 322 323 322 323 325 326 327 326 325 326 326
315 315 319 319 318 318 314 315 319 321 323 319 318 328 332 330 330 329 327 329 328 328 330 329 329 328 328 328 327 328 328 328 327 327 328 328 329 330 330 331 331 331 330 329 329 331 332 332 332 331 331 331 330 330 331 332 332 332 331 330 329 329 328 327 327 328 328 327 327 328 327 328 327 326 325 324 320 320 323 324 324 322 319 319 322 323 322 320 319 321 324 324 325 325 325 325 326
315 315 316 319 321 320 317 317 319 322 323 321 321 330 332 329 329 329 328 327 327 328 328 328 328 327 327 327 327 327 328 328 328 327 328 328 329 329 329 330 329 329 330 329 329 330 331 333 332 331 331 330 330 330 330 329 330 331 330 329 330 329 327 326 327 329 329 328 328 328 328 328 327 326 325 322 319 321 323 324 324 322 320 323 326 325 323 319 318 320 321 321 322 323 324 325 326
316 315 316 317 318 320 320 319 319 320 325 324 323 328 329 328 327 326 327 326 326 328 327 326 326 325 325 326 325 325 326 326 326 326 326 327 327 328 329 329 329 328 329 329 330 330 330 332 332 331 330 329 328 329 329 327 328 330 331 330 329 329 327 326 327 328 329 329 327 326 327 327 326 326 325 322 321 322 322 323 322 320 322 326 326 326 324 320 320 321 320 320 322 322 323 325 326
317 316 317 317 318 319 319 321 323 325 329 329 327 329 327 326 326 324 325 326 325 326 326 325 324 324 324 324 323 322 322 323 322 323 323 324 325 325 326 327 327 328 328 328 329 329 330 330 330 330 331 330 329 330 330 329 328 330 332 330 329 328 326 327 328 328 329 329 327 326 327 326 325 326 325 323 323 323 323 323 318 316 323 326 325 325 324 321 322 323 322 322 323 324 323 322 324
Wind_Speed
4 3 3 6 5 2 2 2 0 2 2 4 5 3 7 8 8 8 4 4 6 8 14 17 16 12 7 12 16 16 14 5 2 3 5 10 17 21 18 17 18 19 22 24 24 24 23 23 25 25 24 24 23 22 22 21 20 19 18 18 18 18 18 17 15 14 15 15 15 14 15 15 15 14 15 16 17 17 17 17 17 16 16 15 15 16 16 17 18 19 19 19 21 22 23 23 23
6 6 8 6 2 1 2 1 2 2 2 6 5 5 9 5 2 1 5 7 6 6 12 16 14 10 11 21 20 16 15 11 12 15 18 20 20 17 15 17 17 16 21 25 25 25 24 24 25 25 24 24 22 21 21 20 19 18 17 17 17 17 17 17 15 14 13 14 14 14 14 14 14 13 14 16 16 17 17 17 16 16 15 15 15 16 16 16 18 19 19 19 21 22 23 24 25
8 8 10 6 1 1 5 2 2 2 3 6 5 6 8 3 3 5 9 10 10 10 11 11 9 6 13 18 13 9 7 13 21 24 24 21 20 19 15 17 15 13 21 25 25 25 24 25 25 24 24 23 22 20 20 19 18 18 17 16 16 16 16 16 15 14 12 12 13 13 13 13 13 12 13 16 16 16 17 17 17 16 15 14 15 16 16 16 18 18 19 19 20 22 23 25 27
7 6 8 4 2 2 2 1 3 2 4 5 5 6 2 4 5 7 10 12 11 8 8 7 9 10 17 14 11 13 10 12 19 23 20 15 18 19 16 16 14 14 22 25 25 25 24 25 24 24 23 22 21 20 19 18 18 17 16 15 15 15 15 15 14 14 12 12 12 13 13 13 12 11 13 15 16 16 16 17 17 16 15 14 15 16 16 16 17 18 19 20 20 22 23 25 26
6 7 7 3 1 1 1 1 3 4 6 5 3 5 3 3 5 5 6 10 9 6 4 3 6 12 18 13 10 9 10 14 15 19 18 15 16 16 16 17 14 16 24 25 25 25 24 24 24 24 22 22 21 19 19 18 18 17 16 15 15 15 15 15 14 13 12 12 12 12 12 12 11 11 12 13 15 16 16 17 17 16 15 14 15 16 16 16 17 18 19 20 21 22 23 24 26
8 6 4 3 5 4 3 2 3 5 8 6 4 4 2 4 5 4 3 9 9 7 4 2 8 12 13 15 17 11 9 15 15 19 20 19 16 15 15 15 13 19 26 26 25 25 25 25 23 23 22 21 20 19 18 18 18 17 15 15 15 15 15 14 13 12 12 11 11 12 12 11 11 11 11 12 14 14 15 16 16 16 14 14 15 15 16 16 17 18 19 20 21 22 24 26 28
9 3 3 4 6 4 2 3 5 6 8 8 5 4 2 4 3 3 6 7 6 5 4 2 15 18 8 9 15 14 10 16 19 20 20 20 18 16 15 13 13 21 27 26 26 26 25 24 23 22 21 20 20 19 18 17 17 16 15 15 15 15 15 14 13 12 11 11 11 11 11 11 11 11 10 11 12 13 15 16 16 16 15 14 15 15 15 15 16 17 18 19 21 23 25 28 29
6 2 3 2 2 2 2 4 6 6 8 9 4 4 3 5 5 3 5 3 3 4 4 5 20 19 7 11 11 12 13 15 18 17 18 19 16 13 13 12 13 21 26 25 26 26 25 24 23 22 21 20 19 18 17 16 16 16 15 15 15 15 14 13 13 12 11 11 10 11 11 11 10 10 10 10 11 12 13 15 16 15 15 15 15 15 15 15 16 17 17 18 20 24 27 29 28
3 3 5 2 2 3 3 5 6 8 10 9 3 4 4 5 4 2 3 3 3 3 5 8 17 17 9 18 16 14 16 11 14 18 19 19 16 14 13 14 13 19 22 22 25 26 25 24 23 21 20 19 18 17 16 16 15 16 15 15 15 14 14 13 12 11 10 10 9 9 10 11 11 11 10 10 10 10 12 14 15 14 15 15 14 14 14 15 15 16 16 17 21 25 27 28 27
2 6 5 1 2 4 5 6 6 8 10 6 4 5 6 6 4 3 2 3 4 2 3 7 17 19 14 15 13 13 15 10 15 23 23 20 17 16 16 15 12 14 17 20 24 25 25 23 22 21 20 19 17 17 16 16 15 15 15 15 14 13 13 12 12 11 9 9 9 9 10 11 11 11 10 9 9 9 11 13 14 14 14 14 14 14 14 15 15 15 15 17 20 24 26 27 27
5 9 8 2 3 4 5 6 7 9 8 4 5 7 6 6 6 3 2 4 5 6 6 18 17 20 17 10 11 13 13 11 18 26 25 21 19 19 19 17 13 12 13 19 25 25 24 22 22 21 20 19 17 17 16 16 16 15 15 15 14 13 12 12 12 10 9 9 10 11 11 11 10 9 9 9 8 9 10 11 13 13 13 13 13 14 15 15 14 14 15 16 19 22 24 26 27
6 5 5 3 4 5 5 6 7 8 4 2 3 6 4 4 5 2 5 5 5 7 3 14 15 20 13 4 12 14 16 16 20 25 25 23 22 21 19 18 16 12 11 20 26 25 25 23 22 21 20 19 18 17 17 17 16 16 15 14 14 13 13 12 11 10 9 11 11 11 11 10 8 7 7 8 8 9 10 10 11 12 12 13 13 14 15 15 14 14 14 15 17 20 22 25 25
9 4 3 3 5 4 6 7 7 5 3 2 1 3 4 5 7 9 9 7 9 9 2 17 24 21 9 6 15 15 18 20 20 24 26 24 22 23 21 18 16 13 11 20 27 25 25 24 23 22 20 19 19 18 18 17 16 16 15 14 13 13 12 11 10 10 11 12 12 11 10 8 6 6 6 7 9 10 10 9 9 11 12 12 13 14 14 14 14 14 14 14 16 18 21 23 23
13 9 4 3 4 4 5 6 6 2 1 3 1 1 4 6 10 12 7 5 6 9 9 21 23 16 11 10 14 17 20 20 20 25 27 23 22 22 21 18 16 13 13 21 26 24 25 25 24 23 21 20 20 20 19 17 16 16 14 13 13 12 11 11 10 11 13 13 12 10 8 7 6 6 6 5 8 10 11 9 7 9 12 12 12 13 13 13 13 13 13 14 14 16 19 20 20
16 14 4 3 4 5 5 5 7 1 2 4 2 3 4 7 8 7 2 3 5 12 13 13 11 9 12 10 11 20 21 21 23 25 25 23 22 19 19 18 16 14 14 22 25 23 25 25 24 23 22 21 21 20 19 18 17 15 14 13 12 12 11 11 11 12 14 12 10 9 7 7 6 6 6 5 7 10 11 9 7 8 11 12 12 13 12 12 12 12 13 13 14 15 16 16 17
19 14 2 3 5 5 5 5 7 1 2 3 7 9 4 8 7 6 3 3 4 10 15 11 9 11 17 17 19 24 21 22 23 24 24 23 23 19 18 18 17 13 14 24 26 24 24 24 25 23 23 22 21 21 20 19 17 16 15 14 14 12 12 12 12 13 13 11 9 8 8 7 7 7 6 5 6 9 11 10 8 8 10 12 12 13 12 12 12 12 12 13 13 14 14 15 17
18 12 2 4 5 5 5 3 2 1 1 4 10 12 4 4 6 7 6 2 3 13 20 17 16 17 18 19 23 25 22 23 24 26 28 25 24 22 22 21 18 14 17 26 26 25 25 25 25 23 23 22 22 21 20 20 18 17 17 16 15 13 13 13 14 14 12 10 9 8 8 8 7 6 5 4 5 7 11 11 10 8 9 12 12 13 13 12 11 11 11 11 12 13 14 15 17
13 5 4 5 5 5 6 3 1 3 0 3 6 10 5 4 6 5 4 4 4 17 22 23 21 16 17 20 24 26 23 25 26 28 30 27 26 25 26 25 20 17 21 27 25 25 26 25 24 23 23 23 23 22 21 21 19 19 18 17 16 15 14 14 14 13 12 11 10 9 8 7 6 5 4 4 4 6 10 11 10 7 8 11 12 13 13 12 11 10 10 10 11 12 13 14 15
9 3 4 6 5 7 10 6 3 5 3 4 5 7 4 4 7 4 3 3 4 12 16 23 26 20 23 25 25 26 24 26 26 28 31 29 28 28 28 26 21 19 24 27 26 25 26 25 24 23 24 23 23 23 22 21 20 20 19 18 17 16 15 14 14 13 12 10 9 9 8 7 6 5 4 4 4 5 7 9 8 6 7 9 10 12 13 12 11 10 10 9 10 11 12 12 12
10 7 4 6 6 8 14 10 8 10 9 7 7 7 6 7 8 6 6 9 3 9 11 15 22 25 28 28 26 26 25 26 26 27 30 29 29 28 28 28 24 23 25 26 26 24 24 25 24 24 24 24 24 24 23 22 20 20 19 19 18 17 16 15 14 12 11 10 10 10 9 8 7 6 6 6 5 5 6 7 7 6 7 8 10 13 14 13 12 10 9 9 9 9 10 10 10
9 9 5 6 7 8 12 9 11 12 12 8 9 9 10 9 5 6 7 9 6 8 17 17 22 28 28 28 27 27 26 26 26 27 28 29 27 27 29 28 26 27 27 27 27 25 24 25 25 26 24 24 24 24 23 22 21 20 20 19 18 17 16 15 14 12 11 10 10 10 10 9 8 7 8 7 6 5 6 6 5 5 6 7 9 12 14 13 12 10 9 9 8 8 8 8 7
6 9 10 10 11 9 10 9 9 8 9 6 6 5 9 11 5 6 5 5 2 6 17 22 24 25 23 25 27 27 27 26 26 28 28 29 27 28 29 27 28 32 31 30 29 26 24 24 26 26 25 24 24 23 22 22 21 21 20 18 18 17 17 16 15 14 13 12 11 10 10 10 9 9 9 8 6 5 5 4 5 4 3 5 8 11 12 12 11 10 9 8 7 7 7 6 4
5 7 10 14 15 11 12 11 5 9 6 4 4 7 9 9 6 5 7 3 7 12 18 20 20 19 20 24 25 26 27 26 26 28 28 29 28 28 28 26 28 33 33 32 29 27 24 23 26 26 25 24 23 22 22 23 22 21 21 19 18 18 18 17 16 15 14 13 11 10 10 11 10 9 9 8 6 4 4 3 3 2 2 5 8 10 11 11 10 10 10 9 9 9 7 7 3
9 6 7 13 16 13 15 12 2 5 3 3 7 9 9 6 4 7 5 7 14 19 20 19 19 19 21 23 24 25 25 25 26 27 27 27 28 28 26 25 28 32 34 33 32 29 24 22 24 25 25 24 24 23 23 23 22 21 19 18 16 18 19 17 16 15 13 13 11 11 11 11 11 10 10 9 7 5 3 3 2 3 5 5 9 11 11 10 10 11 11 11 11 9 7 5 6
9 7 9 12 16 15 14 13 10 6 4 5 8 7 8 8 5 9 2 16 20 23 23 19 20 21 22 22 22 24 25 25 26 27 28 27 29 28 25 26 30 32 33 33 32 27 23 22 23 25 26 25 25 24 24 23 22 21 18 16 15 17 20 17 16 14 12 13 12 12 12 11 12 11 10 9 9 7 6 4 2 4 7 6 7 9 9 8 8 9 8 8 8 8 7 7 9
10 11 12 10 13 16 13 13 11 5 3 5 7 6 9 12 7 9 8 16 23 23 22 19 21 22 22 21 21 23 25 26 25 26 28 28 28 27 25 26 30 32 32 29 25 23 23 24 25 26 27 26 25 25 25 23 21 21 17 15 16 17 18 17 16 14 12 13 13 13 13 12 11 11 11 11 10 9 7 5 4 5 5 5 5 6 8 7 7 8 6 7 7 8 9 10 10
9 10 10 12 12 14 12 11 10 7 8 8 5 4 8 12 6 5 10 18 25 23 22 20 22 22 21 21 20 22 25 26 26 27 28 28 26 26 27 27 29 30 27 24 22 24 26 26 26 27 27 26 25 26 26 23 21 21 18 16 17 17 17 16 15 13 12 13 14 14 13 12 11 12 13 12 11 10 9 7 7 8 7 6 6 5 6 6 7 7 7 8 9 11 10 9 9
11 7 6 11 10 10 11 10 12 9 6 7 7 5 9 10 4 7 11 22 26 23 24 21 22 22 19 20 20 20 22 22 24 23 22 24 21 24 29 27 27 26 22 22 23 26 27 27 28 27 28 27 25 26 26 23 21 20 19 18 17 16 16 15 14 13 13 14 15 14 14 13 12 13 13 13 12 12 12 11 10 10 9 9 7 5 5 6 8 7 7 9 9 11 9 9 8
14 10 4 5 5 7 11 9 12 10 2 7 7 4 7 6 7 14 12 23 26 24 26 23 22 22 19 18 16 16 19 17 17 10 6 8 6 8 22 21 23 24 20 21 23 26 27 27 28 28 29 29 26 26 24 22 21 19 19 19 17 16 17 16 15 14 15 16 15 14 14 15 14 14 14 14 13 12 12 12 11 11 10 9 7 6 8 8 8 7 8 9 8 7 8 9 6
9 7 3 3 4 5 10 10 13 11 7 13 8 2 6 5 11 21 17 23 28 24 25 24 24 23 19 16 15 14 17 16 16 12 10 8 8 8 9 18 20 22 21 21 21 25 27 28 30 30 31 30 27 26 23 22 22 20 20 19 18 17 17 17 16 17 17 17 16 15 15 15 15 15 16 15 14 12 12 12 12 12 11 10 8 9 11 10 9 8 8 7 7 6 7 7 5
4 3 3 2 2 6 9 9 12 10 11 18 10 2 7 6 10 19 18 21 28 25 22 25 25 23 19 17 16 15 14 14 14 15 15 14 13 11 7 17 19 20 21 20 21 24 27 29 32 32 32 32 29 26 24 23 23 22 21 20 19 18 17 17 17 18 18 17 17 16 15 15 16 17 17 16 14 14 13 12 13 12 12 11 10 11 12 11 10 8 7 6 5 5 5 6 6
2 1 4 2 4 8 9 8 12 11 10 16 12 2 7 5 12 19 20 19 24 26 22 25 25 22 20 17 16 14 12 12 11 14 16 15 15 11 10 18 21 22 20 19 21 23 26 30 31 32 32 32 30 27 25 24 24 22 21 20 19 18 17 16 16 17 17 17 17 16 16 16 16 18 18 17 15 14 13 12 12 12 11 11 10 11 11 11 10 8 8 6 5 5 4 5 6
2 4 4 4 5 7 7 9 15 15 8 10 11 2 6 4 12 19 22 21 22 27 23 25 25 22 21 18 15 13 12 13 13 15 16 14 15 12 11 17 22 21 17 17 23 24 27 29 30 32 32 32 31 28 27 26 24 22 20 20 19 18 17 17 16 17 17 17 17 16 16 15 16 18 18 17 16 14 14 12 11 11 11 12 10 10 10 10 8 7 8 7 7 7 5 5 5
2 4 4 6 8 7 6 5 11 15 7 6 7 3 8 8 10 18 26 19 25 26 23 24 24 22 21 19 16 14 12 13 13 14 13 13 14 14 14 17 22 21 16 17 23 25 27 26 28 31 32 32 31 29 29 26 23 21 19 19 19 18 18 17 16 17 17 17 17 16 15 15 16 18 17 17 17 14 13 12 12 11 12 13 10 8 8 7 7 7 7 7 7 7 7 7 6
5 6 5 6 8 7 6 4 8 11 5 6 6 5 10 10 8 16 20 14 30 22 23 24 22 22 20 19 17 13 11 10 10 10 11 12 13 16 18 18 20 21 18 19 24 26 25 24 27 30 30 31 31 30 30 26 23 21 19 19 20 20 19 18 18 18 18 17 17 15 15 16 17 17 16 15 16 14 12 12 14 13 13 14 9 8 9 8 7 8 7 7 7 6 6 8 9
8 6 5 5 6 7 5 6 8 10 5 4 6 6 9 9 7 10 11 17 30 23 24 24 22 22 20 19 18 13 12 12 11 10 10 10 13 15 18 19 20 20 18 19 24 25 25 26 27 27 28 31 31 30 27 25 23 21 20 20 21 20 19 18 19 18 18 17 16 15 15 16 17 17 16 14 14 14 13 14 15 14 13 12 9 10 11 10 8 8 9 8 7 7 7 8 10
10 6 4 5 5 7 4 8 9 9 7 4 6 3 6 8 8 7 7 7 16 19 20 20 22 23 22 21 19 16 14 14 14 13 11 10 13 14 16 21 21 18 18 18 22 24 25 27 26 25 29 32 31 29 25 22 21 21 21 20 20 20 19 19 19 19 18 17 16 15 14 16 17 17 16 15 14 13 14 14 14 14 12 10 10 11 11 10 9 8 9 10 8 8 9 9 10
9 6 3 5 5 7 4 8 8 6 6 3 4 2 5 7 8 8 6 4 5 14 15 17 22 23 23 22 18 18 17 16 15 15 14 12 13 15 20 24 21 19 17 15 19 22 19 19 22 26 32 33 29 26 22 19 19 20 19 18 17 18 18 19 19 19 18 17 16 16 15 15 16 16 15 15 13 12 14 14 13 12 11 9 10 12 11 10 10 10 10 11 10 8 9 10 10
7 6 3 5 5 6 5 5 6 5 4 2 4 3 5 6 8 9 8 7 6 20 26 25 26 23 23 23 21 21 20 19 19 17 16 17 17 18 21 23 19 17 15 16 21 19 12 11 17 24 27 27 24 20 16 15 16 18 17 16 16 16 17 18 18 18 18 17 17 17 16 15 14 15 14 13 12 11 13 14 12 10 9 10 11 12 11 10 10 11 11 13 13 11 10 11 11
5 5 3 3 6 5 5 1 4 4 4 4 5 3 4 5 7 9 11 14 12 14 29 30 28 27 28 29 28 27 26 24 23 21 20 21 19 17 18 19 18 15 12 12 15 13 9 7 12 19 20 19 20 16 12 13 15 17 18 16 16 17 17 19 19 19 18 18 18 18 17 15 14 14 12 11 12 11 12 13 10 9 9 10 11 12 11 10 11 12 12 14 14 12 12 13 13
3 2 1 2 6 6 6 4 2 1 0 3 7 2 4 4 5 7 10 14 15 11 17 23 26 30 31 32 32 30 27 26 26 25 25 23 19 18 20 21 18 15 9 6 6 8 10 9 11 15 16 16 15 13 12 16 19 19 20 20 19 20 19 21 22 22 21 20 19 19 17 15 15 15 13 12 12 12 12 11 10 10 11 11 11 12 11 11 11 12 14 15 13 11 12 14 14
2 1 1 4 9 10 9 9 6 4 4 2 4 3 5 5 6 7 8 8 9 10 9 17 25 28 26 29 34 33 29 26 24 25 26 24 22 22 22 19 16 14 9 7 8 12 15 13 11 13 14 15 15 15 15 19 21 20 21 23 23 24 23 23 23 22 22 21 19 18 17 16 16 16 14 14 14 14 12 10 10 11 12 11 11 12 12 12 13 13 14 13 12 11 12 14 15
1 2 4 6 9 10 10 9 6 1 3 4 3 3 4 5 5 8 8 7 9 10 7 12 22 26 28 33 36 35 33 28 25 26 25 26 26 24 22 19 17 15 12 12 13 14 15 15 15 14 14 15 17 18 17 19 22 21 22 23 23 24 24 22 21 19 20 20 18 18 18 17 17 16 15 16 15 13 12 11 11 11 11 12 12 11 12 12 12 13 14 13 12 12 12 13 14
2 4 6 8 9 9 9 8 6 3 4 3 2 4 2 4 5 7 7 6 6 7 8 5 4 4 13 29 37 35 35 33 30 28 24 26 27 25 23 21 19 16 16 16 14 13 16 17 15 13 13 13 15 16 18 20 21 22 22 22 23 22 21 20 20 20 21 21 20 19 18 18 18 17 16 16 14 12 12 13 12 12 12 12 12 11 11 12 11 12 14 14 13 13 12 12 13
4 6 8 10 8 8 9 7 5 4 4 4 3 2 2 4 5 7 7 4 2 6 7 9 13 20 16 11 33 31 23 18 13 14 19 23 24 23 22 21 19 17 17 17 15 16 19 16 13 12 10 11 14 16 17 17 18 20 22 22 23 22 20 20 20 21 22 21 20 19 19 19 19 18 16 16 15 13 14 14 13 13 13 13 12 12 12 12 12 12 13 14 14 14 12 11 12
5 7 9 8 5 3 2 3 2 2 1 4 3 1 1 5 5 6 5 3 4 6 8 12 16 24 30 13 11 11 11 12 13 11 15 18 18 18 18 18 16 16 18 19 17 18 19 15 14 13 10 10 15 17 18 17 15 19 23 23 24 23 21 21 21 22 22 22 20 20 20 20 18 18 17 17 15 14 15 15 14 14 13 13 12 13 13 13 13 12 11 12 13 13 13 12 12
6 7 7 6 5 2 1 1 3 4 1 5 5 3 4 4 5 5 5 5 6 6 7 11 16 24 32 30 23 19 17 16 14 13 11 12 13 14 14 15 15 16 19 20 19 18 19 18 16 13 11 14 17 17 17 17 15 19 23 24 24 23 23 23 23 23 23 22 22 21 21 20 18 17 18 16 14 13 15 15 14 15 14 13 13 12 12 13 13 12 11 12 12 12 13 13 13
6 4 2 0 4 3 4 4 4 2 4 4 5 5 5 3 3 4 6 8 9 10 9 10 13 19 27 31 26 20 16 14 11 9 7 8 12 13 13 14 15 17 18 20 20 20 22 22 18 12 13 18 21 19 19 18 16 21 24 24 24 23 24 25 25 24 23 23 23 22 23 22 19 18 18 16 14 13 14 15 15 16 15 14 13 12 11 12 13 13 12 12 12 12 13 13 13
3 2 3 3 2 3 2 2 1 2 5 5 6 7 4 3 0 4 7 10 11 11 12 13 13 17 23 26 25 23 18 14 13 14 13 14 15 14 15 16 17 18 19 22 22 22 25 26 17 10 15 24 27 26 26 25 23 24 24 23 22 22 23 24 24 24 22 22 23 23 23 23 21 19 19 18 16 14 15 15 14 15 15 13 12 12 11 12 12 13 12 12 12 12 13 13 13
5 3 3 4 2 1 1 3 2 3 5 6 4 1 2 2 1 5 7 9 12 15 17 19 19 20 22 23 25 23 20 17 16 17 17 17 16 16 18 19 21 21 21 24 23 24 29 28 19 18 25 33 34 31 29 26 25 25 23 21 21 21 22 23 23 23 22 22 24 22 21 23 21 18 19 19 17 15 15 14 13 14 14 13 12 11 11 11 11 12 12 12 12 11 11 13 13
4 5 5 5 4 3 3 3 4 4 3 3 1 2 0 3 2 3 8 12 15 19 20 22 23 23 24 25 24 21 18 16 15 15 15 14 13 13 13 14 16 18 20 21 18 20 28 27 22 25 31 35 35 31 25 19 19 23 22 20 21 21 21 22 21 21 21 22 25 23 21 21 19 16 18 19 17 14 14 13 12 12 13 13 12 11 11 11 11 11 11 12 12 11 11 12 12
3 5 5 4 5 5 4 4 5 4 2 2 0 1 1 3 2 2 11 13 16 19 20 22 23 23 26 26 24 22 18 14 11 10 10 10 10 10 9 7 6 7 12 16 15 19 26 28 24 24 27 31 33 27 20 14 16 22 23 21 21 21 22 22 20 21 20 21 24 24 21 19 17 15 16 17 16 13 13 14 12 11 12 12 12 11 11 11 11 11 11 11 11 11 12 12 12
2 4 5 6 6 5 3 4 3 4 3 2 2 2 2 1 2 6 11 11 13 15 17 20 21 24 26 26 25 24 20 15 11 7 4 6 7 6 6 5 3 2 5 10 15 22 27 29 26 24 26 30 32 26 16 11 17 22 22 21 21 21 22 22 20 21 20 19 22 21 19 18 17 15 15 15 15 14 14 14 12 11 11 12 12 11 11 12 11 11 10 11 10 11 12 12 11
3 3 5 6 5 4 2 1 2 2 2 3 3 5 1 1 1 5 9 11 11 10 11 15 20 23 24 24 24 24 23 19 14 10 7 2 2 2 3 3 2 1 2 4 11 19 24 24 21 23 26 26 27 25 14 9 16 22 22 22 22 21 21 21 21 21 19 19 21 20 19 19 17 15 16 15 15 14 13 12 12 10 10 11 12 11 11 12 11 10 11 11 11 12 12 11 10
6 4 3 4 4 4 2 2 2 2 2 2 2 5 3 1 1 4 7 8 8 9 10 12 17 21 21 22 23 24 26 24 18 14 12 8 3 1 2 1 1 2 5 5 8 10 11 12 13 16 22 19 15 16 13 9 15 21 22 23 23 21 21 21 21 22 20 19 21 20 19 18 16 16 16 15 14 14 13 12 11 9 10 12 12 11 10 11 11 11 12 12 12 12 11 11 10
6 4 3 1 4 4 3 3 3 4 3 3 1 4 2 2 2 3 6 7 7 8 9 10 14 20 20 21 23 25 27 27 23 19 15 13 9 4 3 2 1 3 6 7 7 6 3 5 9 11 15 16 13 12 12 12 16 21 23 23 22 22 22 22 23 22 20 20 21 21 19 17 16 16 14 13 14 15 15 13 10 9 12 15 13 10 9 10 12 12 12 11 11 10 10 11 11
5 4 3 2 1 3 2 2 2 4 4 2 2 2 1 3 3 3 5 8 7 7 9 10 14 20 21 23 25 26 26 26 26 23 20 18 15 12 9 6 2 1 4 5 6 6 6 6 7 8 11 16 19 17 15 17 19 22 24 22 22 23 23 23 24 23 21 21 21 21 20 17 17 16 13 13 15 16 15 12 9 10 15 16 14 12 10 11 13 13 11 11 10 9 9 9 11
5 5 5 4 2 2 2 3 3 2 3 3 4 3 1 2 3 3 5 6 7 10 11 11 14 18 21 23 25 26 26 25 25 23 22 21 20 19 17 13 10 7 1 4 4 6 8 7 6 9 14 17 20 20 19 20 21 23 24 22 24 25 24 25 25 23 23 22 21 21 20 18 17 16 13 14 15 14 12 9 8 13 17 16 15 13 11 12 13 12 12 10 8 9 8 6 9
Wind_Direction
201 190 150 139 128 84 43 81 185 252 197 263 250 241 256 225 241 272 314 30 69 30 43 61 64 56 52 105 105 74 54 34 103 111 131 149 159 173 178 171 173 172 167 161 156 153 153 153 151 152 153 152 150 146 142 139 138 135 130 128 127 128 128 129 130 129 129 133 139 141 144 145 143 142 139 137 135 132 129 126 121 116 112 109 108 105 101 99 98 99 100 102 103 103 107 109 107
188 170 141 130 113 72 326 128 189 274 190 259 258 216 253 265 279 325 52 56 72 50 45 55 71 65 74 103 102 71 53 62 95 102 117 145 156 160 170 164 160 167 169 162 155 153 152 152 152 153 154 154 152 148 145 143 142 139 135 132 130 130 130 130 131 130 130 132 138 141 144 146 146 146 144 142 139 136 133 131 126 119 115 114 112 108 105 103 100 99 102 104 106 106 107 108 106
184 171 139 120 27 248 296 302 210 256 211 249 262 232 244 256 112 94 76 79 77 58 38 42 65 69 75 81 77 81 90 90 104 108 116 148 155 145 156 156 151 165 170 164 156 153 151 151 152 153 155 155 153 151 148 147 146 144 141 138 135 134 134 132 132 133 133 136 140 143 144 145 145 146 146 146 144 141 139 136 131 124 120 118 115 112 109 106 102 102 104 107 109 109 109 108 108
182 166 133 110 333 240 265 256 203 222 243 247 267 282 246 155 121 98 89 88 86 64 31 47 59 76 87 84 85 95 110 108 119 120 120 150 156 150 153 152 154 168 169 165 158 153 150 150 152 154 156 156 155 154 153 153 152 151 148 144 142 140 140 136 134 136 139 142 144 147 146 145 144 145 148 148 147 146 143 140 136 131 128 126 121 116 114 110 108 107 108 110 111 111 111 111 110
179 158 133 113 302 263 274 235 217 207 236 236 254 314 34 87 71 85 108 97 99 89 45 90 83 77 83 81 84 87 113 114 124 127 126 145 159 166 158 154 162 169 170 166 158 152 149 149 151 153 156 158 157 158 157 158 158 157 154 151 149 147 147 142 140 141 144 147 147 150 149 149 149 149 150 150 151 148 147 145 142 137 134 132 126 121 119 116 114 111 111 112 114 114 113 112 112
154 152 165 204 257 296 324 250 254 247 241 233 238 288 58 65 33 14 75 95 87 85 60 72 110 96 78 73 68 63 122 124 126 135 138 148 168 183 166 162 165 169 171 164 158 152 149 149 150 153 156 160 159 162 163 163 163 161 160 156 154 153 152 148 147 147 148 150 151 152 153 155 156 156 153 154 155 152 152 150 146 143 140 137 133 129 126 121 117 114 112 114 117 118 116 115 114
133 150 207 216 256 270 276 245 257 264 256 246 232 239 179 95 89 10 37 77 50 70 81 91 112 98 79 90 66 55 118 135 129 142 154 161 174 179 171 168 164 168 168 161 157 151 148 148 149 152 156 160 162 165 167 167 167 165 164 161 159 159 157 154 153 154 154 154 153 153 156 158 160 159 156 157 159 157 157 155 150 149 147 145 141 135 129 124 120 117 116 117 120 122 120 118 116
127 234 248 202 261 230 221 249 251 253 266 264 230 191 166 81 96 50 26 52 3 81 124 160 115 91 70 102 74 65 102 121 126 150 166 162 158 148 151 154 153 162 162 157 155 151 148 148 149 153 156 160 165 168 170 169 169 168 167 165 164 165 162 160 160 160 159 157 157 158 160 160 161 161 158 156 160 162 161 160 155 153 152 151 146 138 132 128 124 121 119 119 121 124 124 120 116
141 239 270 242 226 252 245 251 250 245 255 258 218 172 137 90 101 87 10 340 331 133 210 214 121 105 101 95 86 94 105 116 131 148 151 145 138 129 139 144 147 155 158 158 156 151 147 148 148 152 156 160 166 168 171 170 171 171 171 170 170 171 168 166 165 165 162 161 162 163 164 161 161 161 160 154 157 164 162 163 159 156 156 153 146 139 135 132 127 124 120 120 122 124 125 120 114
216 220 246 262 226 263 258 257 255 251 254 236 168 144 125 110 105 108 89 303 296 282 195 139 112 113 112 94 90 111 125 142 145 144 138 134 136 140 150 153 157 153 152 158 158 151 145 147 149 150 155 160 166 167 169 169 170 172 173 174 174 177 174 169 168 167 164 162 160 158 158 159 158 159 162 156 154 166 166 166 164 162 158 150 144 140 138 135 131 128 123 122 124 127 125 119 114
241 219 222 257 262 255 249 258 261 264 257 188 126 109 112 97 72 48 6 279 285 302 125 106 102 107 99 89 97 123 141 142 145 144 140 138 141 147 154 159 168 158 146 155 157 150 144 147 149 150 154 158 161 161 163 165 168 171 173 176 177 179 176 171 170 167 164 157 152 147 147 151 152 153 160 159 155 167 173 172 172 170 157 146 144 143 141 137 134 131 127 124 128 132 127 120 116
242 232 214 222 238 236 246 258 261 277 282 118 101 108 124 102 88 67 25 340 321 304 186 121 133 122 95 85 110 131 144 141 146 144 143 141 146 152 155 158 163 160 148 157 158 150 146 147 149 151 153 155 155 155 157 161 165 168 172 176 177 176 173 173 170 164 158 152 149 147 148 148 145 144 150 157 157 165 176 181 182 173 154 147 149 147 144 140 136 132 128 126 130 135 129 121 117
234 259 227 231 239 237 258 265 268 301 351 66 208 146 106 72 65 51 36 347 343 344 74 131 144 129 100 124 122 138 147 150 150 144 143 140 152 160 160 165 167 164 150 157 158 153 150 148 150 151 152 151 151 152 154 158 162 166 170 173 173 172 172 173 168 160 156 152 153 153 155 155 149 141 135 149 158 166 176 187 189 170 153 153 156 150 147 143 138 133 129 127 129 135 131 123 118
227 242 231 252 268 268 274 274 279 325 245 257 236 64 56 66 64 54 28 317 22 55 103 130 137 115 106 126 127 148 152 157 151 145 145 143 159 165 167 174 175 170 155 158 160 159 155 152 153 151 152 150 149 151 153 156 160 164 168 168 169 170 172 170 163 158 159 157 156 158 158 161 160 141 127 137 156 170 180 191 192 164 155 159 160 153 150 147 142 137 131 127 124 130 133 125 120
228 243 242 262 275 281 274 270 276 174 221 270 60 359 30 75 94 115 161 297 64 102 119 128 134 119 141 152 152 162 158 159 154 149 149 148 160 165 170 175 174 172 162 165 166 165 160 157 157 154 153 151 150 150 150 154 157 160 161 163 168 171 172 168 164 162 163 162 160 164 163 165 164 142 130 132 154 174 183 195 190 161 162 164 163 158 153 153 148 141 135 128 118 120 131 130 124
230 244 264 267 270 279 269 277 295 73 237 305 39 355 15 83 97 133 103 359 8 93 104 96 106 125 151 160 161 165 160 158 156 152 148 148 157 160 166 172 173 172 168 170 170 169 165 162 161 158 157 153 151 148 147 151 153 156 158 163 168 171 172 168 165 163 165 166 168 171 168 168 165 148 137 139 159 178 186 195 187 169 170 168 166 164 159 157 152 147 141 131 119 111 117 128 128
233 235 248 267 260 254 265 278 323 88 285 19 32 357 8 73 56 78 51 324 342 82 96 94 104 120 143 155 156 159 158 159 159 152 149 151 157 156 160 167 169 169 170 170 172 172 169 168 167 163 160 156 153 149 147 149 151 156 160 164 167 169 168 166 166 165 170 172 172 176 175 174 169 157 149 152 164 179 187 192 187 176 172 171 171 170 165 161 156 153 148 136 125 112 111 121 126
236 210 216 245 250 241 265 272 204 154 316 37 38 1 21 39 19 54 34 245 155 98 104 108 112 120 136 147 153 157 159 159 158 155 153 157 161 158 159 163 165 166 167 170 176 176 173 173 170 165 163 159 156 152 151 152 154 158 160 163 165 168 167 167 169 169 174 176 178 182 181 178 175 171 164 167 170 176 187 192 191 179 169 171 174 175 169 164 160 156 154 144 129 121 120 121 126
229 193 217 228 242 249 270 295 55 81 24 11 58 33 20 11 3 21 25 282 158 102 98 105 112 122 134 146 157 158 159 161 160 160 159 161 164 162 161 161 161 164 167 172 177 178 177 175 170 168 167 163 158 155 156 156 157 161 162 163 164 167 169 169 171 173 177 182 188 185 183 183 188 188 175 180 177 174 185 190 196 193 178 172 174 179 174 166 162 160 158 149 137 132 129 128 131
217 214 244 238 243 261 281 314 49 58 34 9 23 27 336 344 10 9 356 332 355 118 125 114 122 135 140 149 159 159 163 167 162 162 163 164 169 170 167 163 162 167 170 174 178 181 179 176 172 172 171 165 162 161 160 159 160 163 164 164 164 166 170 172 173 176 180 188 194 188 187 189 198 195 178 181 182 176 177 176 187 197 193 185 178 179 177 172 166 165 163 153 149 141 135 138 134
200 205 231 252 275 278 287 341 54 55 45 23 347 351 328 323 13 18 344 328 348 135 157 155 145 145 146 154 162 163 168 171 166 165 165 166 171 175 175 169 166 171 173 175 180 182 181 179 176 175 174 168 166 165 162 162 162 164 165 165 167 168 173 175 174 177 181 189 195 192 193 195 199 197 185 183 182 178 170 159 165 172 185 192 186 179 178 178 172 173 167 158 156 145 144 140 130
192 222 233 242 265 269 284 343 57 70 46 23 325 324 316 316 358 23 317 271 269 157 162 157 149 149 156 163 166 168 171 173 170 168 167 169 174 178 180 175 169 172 175 178 181 181 181 181 178 177 175 170 169 167 164 164 165 166 164 166 168 171 176 176 172 175 181 186 190 192 197 200 201 199 193 187 182 182 174 161 162 161 179 197 192 184 180 180 180 181 175 168 157 146 146 125 127
215 250 239 243 249 253 280 303 67 88 57 31 329 312 313 334 11 335 304 262 152 151 159 157 152 156 164 168 169 171 174 175 173 172 172 174 177 181 184 179 175 177 179 181 182 180 181 180 178 179 177 174 172 169 168 166 168 167 164 166 168 173 177 176 171 171 179 182 182 189 198 201 200 200 197 189 182 184 188 185 190 202 204 193 185 179 179 180 176 174 174 168 153 146 138 120 182
225 255 245 257 259 257 270 277 20 59 16 328 309 310 314 343 2 305 321 116 140 148 153 156 156 160 163 169 172 172 176 178 178 178 177 178 181 185 188 184 181 183 183 182 180 177 179 180 178 180 181 181 175 171 171 169 170 167 167 169 166 175 180 176 171 168 176 176 177 189 197 199 198 201 198 190 178 169 179 185 198 181 160 163 173 171 167 170 170 167 165 161 158 152 134 137 211
218 249 248 262 271 272 280 287 293 301 300 283 276 277 287 291 290 290 250 132 145 151 151 154 157 164 168 170 172 173 179 183 185 185 183 186 187 187 188 187 185 184 182 177 176 177 181 186 185 184 185 183 177 173 173 172 172 171 177 177 165 176 181 177 174 170 176 176 180 190 194 197 199 201 199 196 186 173 170 154 137 152 136 127 154 162 148 149 160 156 153 154 154 147 145 183 211
200 231 243 249 263 271 284 288 282 278 259 249 252 247 252 256 246 272 252 151 149 153 150 156 161 166 170 172 174 177 183 187 191 193 190 192 193 191 187 186 185 182 180 177 182 191 190 188 189 189 188 184 178 176 176 175 177 179 184 180 168 175 182 183 181 175 180 181 185 189 193 199 201 202 200 202 197 187 176 155 152 155 140 126 137 150 140 142 150 145 155 148 140 154 170 196 208
213 231 247 255 263 272 281 285 279 261 237 231 240 254 258 256 218 242 237 158 149 152 152 161 165 167 170 173 178 182 187 190 195 200 200 197 196 195 183 178 182 182 183 187 193 195 190 186 189 193 191 187 181 178 179 178 181 183 185 181 173 176 182 189 187 183 186 186 189 190 195 202 204 206 202 201 197 189 183 179 181 172 167 165 166 176 160 163 163 158 168 152 160 181 179 196 209
283 286 263 260 274 292 293 297 293 278 227 221 246 262 272 273 229 240 221 159 153 155 154 163 166 169 176 177 182 187 189 195 199 203 209 204 200 194 178 172 182 188 192 193 193 191 189 189 189 192 193 190 184 180 179 179 181 182 185 184 177 178 182 190 193 191 191 190 191 191 195 202 206 208 205 201 192 187 189 194 193 180 179 179 180 207 196 178 176 176 172 168 192 190 176 196 206
279 282 287 278 298 293 274 269 273 275 225 215 241 265 267 261 227 252 227 161 159 157 155 166 169 170 179 180 183 190 192 203 206 215 266 229 229 184 171 182 193 192 199 198 194 191 190 191 189 190 193 192 187 183 180 177 179 181 186 185 179 183 187 192 197 195 196 194 193 193 196 201 202 206 209 204 194 192 196 201 198 186 190 194 189 204 200 184 183 186 176 184 207 182 175 197 194
261 261 274 302 321 274 246 239 239 242 231 220 217 269 265 248 223 240 227 172 163 160 161 167 168 168 172 174 178 190 199 213 222 242 284 254 297 340 178 201 205 198 204 198 192 191 190 192 190 189 191 191 188 185 182 178 180 181 183 184 182 186 190 194 195 195 198 195 194 197 199 201 201 204 209 208 200 200 206 208 207 201 204 205 194 192 191 187 191 193 186 201 213 177 178 188 176
264 274 271 231 282 269 241 221 218 218 223 214 194 210 252 261 248 247 238 191 162 160 169 163 163 166 165 168 177 191 200 213 225 231 245 231 246 295 236 212 213 209 209 196 190 191 189 191 191 189 188 189 188 186 184 181 182 181 180 184 185 187 190 192 193 194 197 195 195 196 198 203 205 205 207 207 204 209 216 213 211 214 215 204 193 198 192 186 192 187 181 201 212 187 191 185 167
221 248 288 233 204 256 257 227 211 202 205 190 160 229 256 245 259 260 259 228 173 163 169 159 159 162 161 170 180 188 195 204 214 213 223 222 222 247 235 226 227 217 211 199 190 188 189 191 192 191 188 188 187 185 184 182 183 181 180 184 184 184 184 187 191 193 194 195 195 193 196 203 204 202 204 207 206 215 221 215 212 216 220 206 191 203 196 184 191 183 172 188 208 205 210 199 179
199 177 236 253 229 255 268 241 211 195 190 163 140 233 265 245 252 256 263 242 175 156 162 161 160 159 162 172 179 186 193 196 205 210 213 209 218 237 226 232 236 222 214 202 191 191 193 191 191 192 189 186 184 183 183 183 182 179 178 181 183 182 179 182 189 191 192 193 193 192 197 201 200 199 202 208 209 213 216 213 217 219 225 218 194 197 198 184 183 177 176 186 204 215 209 200 187
241 198 210 240 240 251 260 238 193 182 179 151 140 202 245 262 256 264 271 230 158 149 165 165 161 160 165 174 177 185 192 199 210 214 207 196 215 235 227 237 243 230 219 207 197 194 191 189 190 190 188 185 182 181 181 181 178 174 175 179 182 180 178 183 188 192 193 190 190 192 197 197 198 199 200 209 212 209 209 211 218 221 225 219 195 186 196 186 173 174 186 184 185 205 203 185 175
218 200 210 240 243 252 240 196 165 171 154 127 144 209 243 266 258 280 290 176 145 150 166 164 165 167 169 172 172 179 188 208 226 217 202 195 208 229 235 237 234 227 220 210 201 194 189 189 191 189 186 184 182 182 179 176 173 171 173 176 179 181 180 186 188 191 194 191 191 191 195 195 195 198 198 206 210 204 204 212 214 213 217 214 197 191 198 191 176 170 184 186 174 184 192 178 168
238 217 209 238 253 263 223 168 164 160 130 137 170 210 245 279 273 299 344 128 144 156 163 165 171 170 171 169 166 174 191 207 221 216 204 206 214 229 239 231 223 224 223 213 203 195 190 189 190 188 185 183 183 184 177 170 170 170 172 174 178 183 185 187 186 190 195 193 193 190 191 193 192 195 195 199 206 203 207 217 213 206 208 207 197 200 200 192 179 169 177 187 182 174 173 174 167
262 271 259 277 268 268 220 155 165 148 130 188 187 201 262 294 291 301 354 108 145 156 163 166 171 171 169 168 169 178 199 217 219 211 200 212 228 229 227 222 219 220 221 219 207 201 198 188 185 189 187 182 181 182 175 169 173 173 175 177 181 186 188 186 184 189 193 192 192 190 187 189 190 192 193 197 203 205 211 218 213 208 205 198 196 201 198 189 181 175 175 178 185 181 170 167 162
274 289 301 312 286 278 266 164 169 125 111 176 145 109 286 294 297 299 313 310 161 162 166 167 174 175 167 167 176 185 202 219 215 203 192 195 209 209 210 214 219 221 220 215 201 201 200 180 176 184 184 180 176 177 174 172 182 184 183 183 186 191 190 187 186 186 188 188 188 188 187 185 187 190 192 197 203 208 216 218 212 208 199 189 196 197 191 187 182 180 176 170 178 178 167 163 160
275 289 303 316 301 304 305 160 139 100 114 176 124 131 275 287 299 309 310 294 209 175 172 174 177 170 164 170 179 186 194 205 207 206 197 190 191 202 213 214 214 215 206 193 191 198 200 178 172 171 167 169 169 167 170 177 187 193 195 195 196 196 190 188 190 188 187 187 186 187 188 183 183 190 194 198 201 207 219 217 201 189 186 188 195 190 186 188 183 180 173 170 177 172 166 169 166
254 258 249 279 281 298 306 174 134 144 160 152 127 148 275 304 309 312 304 298 287 196 176 175 175 168 171 179 184 188 191 197 204 206 205 199 194 197 199 188 175 169 161 167 186 197 196 167 148 146 146 154 157 156 174 192 192 196 201 203 204 201 193 191 193 192 189 188 186 185 188 186 181 186 190 194 198 204 212 206 184 175 185 189 191 188 187 189 184 179 171 173 182 177 171 171 168
269 244 173 264 283 292 297 308 317 229 330 125 120 76 323 295 277 287 290 291 295 257 186 171 175 178 182 186 189 194 196 200 201 201 205 200 183 177 177 171 166 163 151 158 184 178 175 158 128 135 144 144 150 164 191 200 197 196 197 200 203 203 199 195 195 194 191 189 186 181 183 185 181 182 186 189 195 199 197 185 167 175 186 185 186 189 189 186 180 179 176 177 184 182 176 173 169
336 327 204 258 287 300 303 315 344 17 331 310 99 57 306 271 243 252 271 273 276 264 204 175 183 186 185 187 193 200 203 206 205 204 203 188 171 172 177 178 181 181 178 177 161 144 156 169 154 148 151 150 167 187 199 203 201 199 199 201 203 203 201 197 195 195 191 187 183 178 179 179 177 179 181 180 183 184 177 167 165 177 183 180 180 184 186 183 178 180 184 182 182 181 178 177 173
18 255 226 237 257 283 298 307 325 17 267 284 99 125 268 295 272 247 247 252 260 265 244 200 195 195 194 195 199 204 205 204 207 207 195 176 172 175 178 185 187 182 171 157 151 146 150 160 162 164 168 168 179 189 196 203 204 205 208 210 210 206 203 198 195 194 190 186 181 179 179 175 170 170 171 173 175 172 167 167 172 174 179 181 180 179 178 178 177 180 187 185 182 181 174 177 179
210 237 240 242 233 245 262 268 279 254 237 290 86 140 250 296 276 262 253 250 266 289 292 272 221 204 201 199 200 204 207 208 209 204 181 166 174 179 180 185 179 171 164 155 157 161 154 151 160 174 176 177 185 190 194 199 204 209 210 212 215 211 207 203 195 189 189 188 184 180 177 172 169 166 165 169 172 174 172 172 171 168 176 180 176 175 172 173 177 180 184 184 184 187 177 176 184
210 223 238 248 229 224 241 241 258 272 260 302 347 80 317 285 275 286 280 267 12 30 14 16 26 28 29 203 206 206 205 205 205 188 165 162 172 176 179 179 171 167 166 163 166 164 157 152 158 166 167 185 198 194 196 202 208 212 211 212 213 209 209 209 198 188 188 188 183 178 173 171 168 161 162 169 178 181 174 170 167 164 173 175 169 173 174 173 177 179 184 184 183 186 181 180 187
207 219 240 261 262 234 237 191 179 9 294 265 285 95 281 284 294 310 312 330 18 43 50 39 32 29 30 44 169 156 111 95 71 87 140 158 167 171 178 179 173 169 166 169 175 171 167 162 159 162 160 175 190 195 204 211 213 212 211 211 210 208 207 207 199 190 187 184 179 174 171 168 162 159 167 176 181 178 170 167 166 163 168 170 166 172 174 174 178 183 187 188 183 182 182 186 190
210 214 232 267 289 295 41 97 94 51 321 247 251 200 194 262 315 350 21 34 30 38 50 46 39 32 35 53 81 89 95 104 86 83 111 137 156 169 180 181 174 170 170 178 183 180 180 173 163 165 172 178 182 188 198 206 219 220 211 208 209 208 204 202 196 190 186 180 174 169 164 161 160 163 170 174 171 170 168 168 169 166 167 169 167 168 172 176 180 182 185 189 187 184 184 188 190
210 194 173 254 322 8 22 360 39 48 269 267 273 257 216 216 314 3 32 38 44 48 49 49 43 39 45 59 75 88 98 108 118 130 140 152 161 168 174 180 182 180 184 191 192 192 188 175 162 162 187 196 191 188 192 199 219 222 210 205 206 205 201 198 193 189 185 177 168 162 157 159 166 169 168 165 163 165 167 169 171 171 171 175 174 169 171 179 179 177 181 188 187 185 187 189 190
172 128 81 93 327 8 21 329 11 219 247 239 244 266 249 183 147 20 41 41 42 49 55 62 58 50 54 64 78 92 101 109 128 143 155 163 164 166 172 179 187 193 202 202 199 202 192 176 171 190 204 201 196 198 204 208 218 216 206 203 204 202 199 195 190 188 183 173 166 162 162 168 175 176 170 164 163 166 168 171 172 172 176 181 176 169 170 176 178 175 177 184 185 184 186 190 194
126 150 127 132 164 53 236 235 218 220 241 232 206 261 283 156 51 14 47 54 50 53 58 66 66 56 55 66 79 93 107 115 122 127 137 149 150 156 167 175 184 192 199 198 198 204 196 186 194 210 202 196 197 203 206 211 218 212 204 205 204 201 198 193 191 188 181 174 169 165 169 177 180 179 173 168 170 173 172 175 173 167 173 181 176 171 168 168 173 173 172 177 179 179 182 188 193
166 183 158 154 161 161 211 204 193 213 254 273 138 89 159 164 235 337 50 53 50 56 61 66 66 60 58 62 69 81 97 109 121 129 133 140 140 149 164 173 183 188 192 199 207 210 204 203 207 204 199 199 202 208 210 214 220 213 207 207 204 200 197 194 193 190 184 179 174 172 176 182 181 173 169 173 179 178 170 171 171 164 165 174 177 172 166 166 170 168 166 172 173 170 176 184 186
215 183 157 186 183 167 208 206 180 160 78 333 4 58 342 144 195 21 57 46 36 44 50 57 61 61 59 57 56 62 74 89 105 121 134 149 155 167 185 188 193 193 191 204 226 230 219 217 213 206 209 213 212 215 222 224 220 212 209 208 203 200 198 197 194 189 187 183 179 179 181 183 180 168 164 172 178 175 167 164 166 167 163 167 175 173 167 169 170 165 164 170 169 165 171 181 183
250 201 186 209 198 166 190 235 219 121 102 271 190 110 1 65 37 27 50 40 27 32 37 45 51 55 59 57 52 53 58 65 71 80 118 162 173 183 198 211 253 234 190 201 219 230 229 223 217 213 217 222 219 221 230 228 213 207 207 207 203 199 199 198 192 187 186 182 178 179 178 177 176 171 167 168 171 171 168 167 173 176 166 163 170 170 170 174 170 165 164 164 165 163 167 178 181
228 243 210 198 201 197 164 190 296 91 131 259 175 133 80 56 26 9 36 37 25 23 31 40 45 47 54 58 56 54 53 54 54 57 58 71 196 208 214 235 268 283 262 214 207 224 234 234 227 216 217 224 223 224 235 235 214 207 205 205 204 200 199 196 190 186 185 179 175 176 175 173 173 173 171 171 175 174 171 172 176 176 167 161 162 162 168 175 170 163 161 160 163 164 165 171 176
214 239 230 159 165 221 219 182 203 130 155 262 140 114 75 69 268 347 26 35 25 24 30 36 43 46 47 51 53 50 51 54 56 59 54 49 63 232 252 253 296 296 279 252 219 221 237 254 254 231 229 236 231 229 238 233 218 213 207 204 202 200 197 193 187 184 184 181 179 176 173 173 172 170 172 175 175 171 169 171 172 177 164 149 148 152 158 165 165 161 159 156 160 163 164 164 167
235 274 295 147 152 181 193 197 184 143 168 229 117 80 36 322 298 346 26 34 29 35 38 34 41 46 44 46 48 44 47 54 57 58 56 55 56 36 23 71 208 268 270 263 249 230 214 271 271 250 244 247 246 249 247 231 222 218 212 205 200 197 194 190 184 183 185 186 184 179 174 173 173 172 173 172 166 167 171 172 178 179 153 141 147 154 149 148 150 151 153 154 155 157 161 162 164
212 255 281 279 243 194 179 232 198 136 147 176 112 71 341 316 325 10 41 42 43 50 54 45 41 44 43 44 46 44 45 50 53 53 52 52 51 46 52 71 79 317 275 268 267 253 238 251 257 245 240 239 241 246 242 232 225 219 215 207 198 194 191 187 184 186 190 189 185 180 176 176 175 173 172 162 161 170 176 177 186 173 152 146 152 154 144 136 133 131 133 136 134 134 148 162 165
168 184 210 215 220 183 179 279 300 92 123 155 132 124 247 316 352 32 40 42 51 52 56 56 46 44 45 45 47 46 43 43 45 47 49 52 55 56 60 64 60 54 64 236 267 269 249 247 257 244 235 234 237 237 234 233 229 220 214 207 198 193 191 188 187 190 193 190 184 179 179 179 175 173 170 156 155 167 175 175 170 160 156 154 151 150 146 136 129 126 127 131 137 139 138 147 160